Location: Treviso
(45.6669°N, 12.2430°E)
Time: 10:56:36
(UTC+01:00)

ISS - Pass Details

Date: 23 March 2023
Orbit: 414 x 423 km, 51.6° (Epoch: 20 March)

Event Time Altitude Azimuth Distance (km) Brightness Sun altitude
Rises 19:27:38 0° 276° (W) 2,357 2.1 -11.3°
Reaches altitude 10° 19:29:54 10° 287° (WNW) 1,493 0.6 -11.7°
Maximum altitude 19:32:55 30° 352° (N) 771 -2.2 -12.2°
Enters shadow 19:35:43 11° 54° (NE) 1,419 -1.4 -12.7°
